Regional Weather Roundup
Issued by NWS

Home | Current Version | Previous Version | Text Only | Print | Product List | Glossary Off
Versions: 1 2 3 4 5 6 7 8 9 10 11 12 13 14 15 16 17 18 19 20 21 22 23 24 25 26 27 28 29 30 31 32 33 34 35 36 37 38 39 40 41 42 43 44 45 46 47 48 49 50

000
ASUS43 KDTX 190601
RWRMI
MICHIGAN HOURLY REGIONAL WEATHER ROUNDUP
NATIONAL WEATHER SERVICE DETROIT/PONTIAC MI
200 AM EDT SUN APR 19 2015

NOTE: "FAIR" INDICATES FEW OR NO CLOUDS BELOW 12,000 FEET WITH NO
SIGNIFICANT WEATHER AND/OR OBSTRUCTION TO VISIBILITY.

MIZ047>049-052>055-059>063-066>070-074>076-081>083-190700-
SOUTHEAST LOWER MICHIGAN

CITY           SKY/WX    TMP DP  RH WIND       PRES   REMARKS
ADRIAN         FAIR      49  31  49 E15       30.09F
6HR MIN TEMP:  49; 6HR MAX TEMP:  62;

ALMA           FAIR      41  35  78 NE9       30.14F
ANN ARBOR      FAIR      47  30  51 NE7       30.11S
BAD AXE        FAIR      37  29  71 E6        30.19S WCI  33
CARO           FAIR      41  30  65 CALM      30.15F
DETROIT CITY   FAIR      45  32  60 NE9       30.13S
6HR MIN TEMP:  45; 6HR MAX TEMP:  55;

DETROIT        MOCLDY    49  30  48 N9        30.12S
6HR MIN TEMP:  48; 6HR MAX TEMP:  63;

FLINT          FAIR      44  29  55 E8        30.15F
6HR MIN TEMP:  44; 6HR MAX TEMP:  57;

GROSSE ILE     FAIR      45  36  70 NE13      30.10S
HILLSDALE      FAIR      52  26  36 E15G21    30.07S
6HR MIN TEMP:  52; 6HR MAX TEMP:  64;

HOWELL         FAIR      43  29  56 NE5       30.12S

CITY           SKY/WX    TMP DP  RH WIND       PRES   REMARKS
JACKSON        FAIR      49  28  44 E14G20    30.08F
6HR MIN TEMP:  47; 6HR MAX TEMP:  63;

LAMBERTVILLE   FAIR      50  32  50 E10       30.09F
LANSING        FAIR      44  29  55 E10       30.12S
6HR MIN TEMP:  44; 6HR MAX TEMP:  60;

LAPEER         FAIR      43  29  58 E8        30.14F
MASON          FAIR      44  29  56 E8        30.11S
MONROE         FAIR      46  34  61 E7        30.09S
PONTIAC        FAIR      45  29  53 E10       30.12S
6HR MIN TEMP:  45; 6HR MAX TEMP:  57;

PORT HOPE        N/A     40  33  76 E9        30.18S WCI  34
6HR MIN TEMP:  40; 6HR MAX TEMP:  43;

PORT HURON     FAIR      37  32  81 NE5       30.16F WCI  34
TRI CITIES     FAIR      43  31  62 E10       30.16F
6HR MIN TEMP:  42; 6HR MAX TEMP:  51;

TROY           FAIR      46  30  53 NE10      30.15R
SAGINAW HB     FAIR      37  32  81 NE6       30.15F WCI  33
$$
MIZ043>046-050>051-056>058-064>065-071>073-077>080-190700-
SOUTHWEST LOWER MICHIGAN

CITY           SKY/WX    TMP DP  RH WIND       PRES   REMARKS
BATTLE CREEK   FAIR      51  23  33 E12       30.07S
6HR MIN TEMP:  50; 6HR MAX TEMP:  67;

BENTON HARBOR  FAIR      56  26  31 E14       30.00F
6HR MIN TEMP:  56; 6HR MAX TEMP:  67;

BIG RAPIDS     FAIR      44  30  58 E9        30.12F
6HR MIN TEMP:  44; 6HR MAX TEMP:  60;

COLDWATER      FAIR      52  21  29 E12       30.06S
6HR MIN TEMP:  52; 6HR MAX TEMP:  65;

FREMONT        FAIR      46  24  43 E16       30.08F
HOLLAND        FAIR      51  28  41 E15       30.06S
6HR MIN TEMP:  51; 6HR MAX TEMP:  65;

GRAND RAPIDS   FAIR      47  28  47 E16       30.08F
6HR MIN TEMP:  47; 6HR MAX TEMP:  60;

IONIA          FAIR      45  29  54 E12       30.10S
KALAMAZOO      FAIR      53  22  29 E6        30.06S
6HR MIN TEMP:  53; 6HR MAX TEMP:  68;

LUDINGTON      FAIR      51  22  31 E14G21    30.08F
6HR MIN TEMP:  51; 6HR MAX TEMP:  66;

MARSHALL       FAIR      49  23  35 E7        30.07S
MOUNT PLEASANT FAIR      37  32  81 NE3       30.15F
6HR MIN TEMP:  37; 6HR MAX TEMP:  54;

MUSKEGON       FAIR      49  28  44 E16       30.07S
6HR MIN TEMP:  49; 6HR MAX TEMP:  64;

SOUTH HAVEN    MOCLDY    57  20  23 E13G18    30.02S
$$
MIZ016>042-190700-
NORTHERN LOWER MICHIGAN

CITY           SKY/WX    TMP DP  RH WIND       PRES   REMARKS
ALPENA         FAIR      29  26  89 E6        30.21S WCI  23
6HR MIN TEMP:  29; 6HR MAX TEMP:  53;

BEAVER ISLAND  FAIR      38  28  66 E8        30.14S WCI  33
6HR MIN TEMP:  38; 6HR MAX TEMP:  54;

BELLAIRE       FAIR      48  22  36 SE6       30.15S
6HR MIN TEMP:  47; 6HR MAX TEMP:  61;

CADILLAC       FAIR      41  27  58 E9        30.13F
CHARLEVOIX     FAIR      47  23  39 SE8       30.17S
FRANKFORT      FAIR      51  17  26 E9G16     30.09F
GAYLORD        FAIR      39  23  52 SE6       30.16S WCI  35
6HR MIN TEMP:  39; 6HR MAX TEMP:  55;

GRAYLING       FAIR      33  22  62 CALM      30.18S
6HR MIN TEMP:  33; 6HR MAX TEMP:  57;

HARBOR SPRINGS FAIR      44  24  45 E12       30.15S
HOUGHTON LAKE  FAIR      36  27  69 E5        30.17S WCI  32
6HR MIN TEMP:  35; 6HR MAX TEMP:  56;

MANISTEE       FAIR      46  21  36 E10G22    30.10F
OSCODA         FAIR      38  32  79 E6        30.20S WCI  33
PELLSTON       FAIR      37  26  64 E7        30.17S WCI  32
6HR MIN TEMP:  30; 6HR MAX TEMP:  56;

ROGERS CITY    FAIR      38  31  77 SE5       30.22R WCI  35
TRAVERSE CITY  FAIR      47  25  42 CALM      30.13S
6HR MIN TEMP:  39; 6HR MAX TEMP:  50;

$$
MIZ007>008-015-190700-
EASTERN UPPER MICHIGAN

CITY           SKY/WX    TMP DP  RH WIND       PRES   REMARKS
KINROSS        FAIR      39  27  60 E15       30.18S WCI  31
6HR MIN TEMP:  34; 6HR MAX TEMP:  46;

MACKINAC ISLAN FAIR      41  28  61 E17G25    30.17S
6HR MIN TEMP:  39; 6HR MAX TEMP:  51;

NEWBERRY       FAIR      34  27  74 E12       30.15S WCI  26
S. S. MARIE    FAIR      40  22  48 E8        30.19F WCI  34
6HR MIN TEMP:  35; 6HR MAX TEMP:  48;

$$
MIZ004>006-011>014-085-190700-
CENTRAL UPPER MICHIGAN

CITY           SKY/WX    TMP DP  RH WIND       PRES   REMARKS
MANISTIQUE     FAIR      38  26  61 E5        30.14S WCI  35
ESCANABA       FAIR      39  28  65 NE6       30.12S WCI  35
6HR MIN TEMP:  39; 6HR MAX TEMP:  52;

MENOMINEE      FAIR      41  30  65 E12       30.09S
6HR MIN TEMP:  41; 6HR MAX TEMP:  54;

SAWYER-GWINN   FAIR      37  27  65 SE7       30.11F WCI  32
$$
MIZ001>003-009>011-084-190700-
WESTERN UPPER MICHIGAN

CITY           SKY/WX    TMP DP  RH WIND       PRES   REMARKS
IRON MOUNTAIN  FAIR      40  26  57 E3        30.08F
6HR MIN TEMP:  40; 6HR MAX TEMP:  57;

HOUGHTON       FAIR      33  29  85 E9        30.09F WCI  25
6HR MIN TEMP:  33; 6HR MAX TEMP:  41;

COPPER HARBOR    N/A     37  28  70 SW12      30.11F WCI  29
6HR MIN TEMP:  33; 6HR MAX TEMP:  41;

IRONWOOD       FAIR      52  12  20 SE15G24   29.97F
6HR MIN TEMP:  50; 6HR MAX TEMP:  63;

$$

ABBREVIATIONS USED IN REMARKS
   TC - TEMPERATURE IN CELSIUS
  WCI - WIND CHILL INDEX
   HX - HEAT INDEX
  VSB - VISIBILITY



USA.gov is the U.S. government's official web portal to all federal, state and local government web resources and services.